When you browse on this site, cookies collect data to enhance your experience and personalize the content and advertising you see.
Visit our Privacy Policy to learn more. By continuing to use the site, you agree to this use of cookies and data.
  • In Hungary
  • List of Countries
  • For 7 days
  • Water Temperature
  • Satellite Maps
  • Weather Map
  • News
  • Weather Widgets
  • user-avatar
    Login

    Hourly Weather Kamarang

    Today, 25 March, Monday

    Time Temperature Precipitation Wind Pressure Humidity
    00:00 +23°C° 0.1 mm 1 mps 714 mmHg 87%
    01:00 +21°C° 0.1 mm 0 mps 713 mmHg 90%
    02:00 +21°C° 0.1 mm 0 mps 713 mmHg 92%
    03:00 +20°C° 0.2 mm 0 mps 713 mmHg 94%
    04:00 +20°C° 0.2 mm 0 mps 713 mmHg 95%
    05:00 +20°C° 0.2 mm 0 mps 713 mmHg 97%
    06:00 +20°C° 0.1 mm 0 mps 713 mmHg 95%
    07:00 +21°C° 0.1 mm 0 mps 713 mmHg 94%
    08:00 +21°C° 0.1 mm 0 mps 713 mmHg 92%
    09:00 +26°C° 0.1 mm 1 mps 714 mmHg 79%
    10:00 +28°C° 0.1 mm 1 mps 714 mmHg 66%
    11:00 +30°C° 0.1 mm 2 mps 714 mmHg 53%
    12:00 +31°C° 0 mm 2 mps 714 mmHg 50%
    13:00 +32°C° 0 mm 1 mps 713 mmHg 47%
    14:00 +33°C° 0 mm 1 mps 712 mmHg 43%
    15:00 +32°C° 0 mm 2 mps 712 mmHg 45%
    16:00 +32°C° 0 mm 2 mps 711 mmHg 47%
    17:00 +31°C° 0 mm 2 mps 711 mmHg 48%
    18:00 +29°C° 0 mm 2 mps 711 mmHg 57%
    19:00 +27°C° 0 mm 1 mps 711 mmHg 66%
    20:00 +25°C° 0 mm 1 mps 711 mmHg 75%
    21:00 +24°C° 0 mm 1 mps 712 mmHg 78%
    22:00 +24°C° 0 mm 1 mps 713 mmHg 81%
    23:00 +24°C° 0 mm 1 mps 713 mmHg 84%

    Tomorrow, 26 March, Tuesday

    Time Temperature Precipitation Wind Pressure Humidity
    00:00 +23°C° 0 mm 1 mps 713 mmHg 87%
    01:00 +23°C° 0 mm 1 mps 712 mmHg 90%
    02:00 +20°C° 0 mm 0 mps 712 mmHg 93%
    03:00 +20°C° 0 mm 0 mps 712 mmHg 94%
    04:00 +20°C° 0 mm 0 mps 712 mmHg 95%
    05:00 +20°C° 0 mm 0 mps 711 mmHg 95%
    06:00 +22°C° 0 mm 1 mps 712 mmHg 91%
    07:00 +23°C° 0 mm 1 mps 713 mmHg 87%
    08:00 +24°C° 0 mm 1 mps 713 mmHg 83%
    09:00 +26°C° 0 mm 1 mps 714 mmHg 73%
    10:00 +28°C° 0 mm 1 mps 714 mmHg 63%
    11:00 +30°C° 0 mm 1 mps 714 mmHg 53%
    12:00 +31°C° 0 mm 1 mps 713 mmHg 50%
    13:00 +32°C° 0 mm 2 mps 712 mmHg 47%
    14:00 +34°C° 0 mm 2 mps 711 mmHg 44%
    15:00 +32°C° 0 mm 2 mps 711 mmHg 46%
    16:00 +31°C° 0 mm 2 mps 710 mmHg 49%
    17:00 +31°C° 0 mm 2 mps 710 mmHg 51%
    18:00 +29°C° 0 mm 2 mps 710 mmHg 59%
    19:00 +27°C° 0 mm 1 mps 711 mmHg 67%
    20:00 +25°C° 0 mm 1 mps 711 mmHg 75%
    21:00 +24°C° 0 mm 1 mps 712 mmHg 79%
    22:00 +24°C° 0 mm 1 mps 712 mmHg 82%
    23:00 +23°C° 0 mm 1 mps 713 mmHg 86%

    Day after tomorrow, 27 March, Wednesday

    Time Temperature Precipitation Wind Pressure Humidity
    00:00 +20°C° 0 mm 0 mps 712 mmHg 89%
    01:00 +20°C° 0 mm 0 mps 712 mmHg 93%
    02:00 +19°C° 0 mm 0 mps 711 mmHg 96%
    03:00 +20°C° 0 mm 0 mps 711 mmHg 96%
    04:00 +20°C° 0 mm 0 mps 711 mmHg 95%
    05:00 +20°C° 0 mm 0 mps 711 mmHg 94%
    06:00 +21°C° 0.1 mm 0 mps 712 mmHg 92%
    07:00 +21°C° 0.1 mm 0 mps 713 mmHg 90%
    08:00 +22°C° 0.1 mm 0 mps 713 mmHg 87%
    09:00 +25°C° 0 mm 1 mps 714 mmHg 78%
    10:00 +27°C° 0 mm 1 mps 714 mmHg 70%
    11:00 +29°C° 0 mm 1 mps 714 mmHg 61%
    12:00 +31°C° 0 mm 1 mps 713 mmHg 54%
    13:00 +34°C° 0 mm 2 mps 712 mmHg 47%
    14:00 +35°C° 0 mm 2 mps 712 mmHg 40%
    15:00 +34°C° 0 mm 2 mps 711 mmHg 44%
    16:00 +32°C° 0 mm 2 mps 711 mmHg 47%
    17:00 +31°C° 0 mm 2 mps 710 mmHg 51%
    18:00 +29°C° 0 mm 1 mps 711 mmHg 58%
    19:00 +27°C° 0 mm 1 mps 711 mmHg 65%
    20:00 +23°C° 0 mm 0 mps 712 mmHg 73%
    21:00 +23°C° 0 mm 0 mps 712 mmHg 77%
    22:00 +22°C° 0 mm 0 mps 713 mmHg 81%
    23:00 +24°C° 0 mm 1 mps 713 mmHg 85%

    28 March, Thursday

    Time Temperature Precipitation Wind Pressure Humidity
    00:00 +21°C° 0 mm 0 mps 713 mmHg 88%
    01:00 +21°C° 0 mm 0 mps 712 mmHg 91%
    02:00 +20°C° 0 mm 0 mps 712 mmHg 94%
    03:00 +20°C° 0 mm 0 mps 712 mmHg 94%
    04:00 +20°C° 0 mm 0 mps 712 mmHg 95%
    05:00 +20°C° 0 mm 0 mps 712 mmHg 95%
    06:00 +21°C° 0 mm 0 mps 713 mmHg 88%
    07:00 +22°C° 0 mm 0 mps 714 mmHg 82%
    08:00 +26°C° 0 mm 1 mps 715 mmHg 75%
    09:00 +27°C° 0 mm 1 mps 715 mmHg 70%
    10:00 +28°C° 0 mm 1 mps 714 mmHg 64%
    11:00 +29°C° 0 mm 1 mps 714 mmHg 59%
    12:00 +31°C° 0 mm 1 mps 714 mmHg 52%
    13:00 +33°C° 0 mm 1 mps 713 mmHg 45%
    14:00 +35°C° 0 mm 1 mps 712 mmHg 39%
    15:00 +34°C° 0.3 mm 1 mps 712 mmHg 46%
    16:00 +32°C° 0.3 mm 1 mps 711 mmHg 53%
    17:00 +30°C° 0.3 mm 1 mps 711 mmHg 61%
    18:00 +28°C° 1.1 mm 1 mps 711 mmHg 72%
    19:00 +26°C° 1.1 mm 1 mps 712 mmHg 84%
    20:00 +24°C° 1.1 mm 1 mps 712 mmHg 96%
    21:00 +23°C° 0.2 mm 1 mps 713 mmHg 97%
    22:00 +21°C° 0.2 mm 0 mps 713 mmHg 97%
    23:00 +21°C° 0.2 mm 0 mps 713 mmHg 98%

    29 March, Friday

    Time Temperature Precipitation Wind Pressure Humidity
    00:00 +21°C° 0 mm 0 mps 713 mmHg 98%
    01:00 +21°C° 0 mm 0 mps 713 mmHg 98%
    02:00 +21°C° 0 mm 0 mps 712 mmHg 98%
    03:00 +21°C° 0 mm 0 mps 712 mmHg 98%
    04:00 +21°C° 0 mm 0 mps 712 mmHg 98%
    05:00 +20°C° 0 mm 0 mps 712 mmHg 98%
    06:00 +21°C° 0 mm 0 mps 713 mmHg 96%
    07:00 +22°C° 0 mm 0 mps 714 mmHg 94%
    08:00 +22°C° 0 mm 0 mps 714 mmHg 92%
    09:00 +26°C° 0.1 mm 1 mps 714 mmHg 81%
    10:00 +28°C° 0.1 mm 1 mps 714 mmHg 70%
    11:00 +30°C° 0.1 mm 1 mps 714 mmHg 58%
    12:00 +31°C° 0.1 mm 1 mps 713 mmHg 53%
    13:00 +33°C° 0.1 mm 1 mps 713 mmHg 48%
    14:00 +35°C° 0.1 mm 2 mps 712 mmHg 43%
    15:00 +32°C° 0.7 mm 2 mps 711 mmHg 54%
    16:00 +30°C° 0.7 mm 2 mps 711 mmHg 66%
    17:00 +28°C° 0.7 mm 2 mps 710 mmHg 77%
    18:00 +26°C° 0.5 mm 1 mps 711 mmHg 83%
    19:00 +25°C° 0.5 mm 1 mps 712 mmHg 89%
    20:00 +22°C° 0.5 mm 0 mps 712 mmHg 96%
    21:00 +21°C° 0.1 mm 0 mps 712 mmHg 96%
    22:00 +21°C° 0.1 mm 0 mps 713 mmHg 97%
    23:00 +21°C° 0.1 mm 0 mps 713 mmHg 97%

    30 March, Saturday

    Time Temperature Precipitation Wind Pressure Humidity
    00:00 +21°C° 0 mm 0 mps 713 mmHg 97%
    01:00 +21°C° 0 mm 0 mps 712 mmHg 98%
    02:00 +20°C° 0 mm 0 mps 712 mmHg 98%
    03:00 +20°C° 0 mm 0 mps 712 mmHg 98%
    04:00 +20°C° 0 mm 0 mps 712 mmHg 98%
    05:00 +20°C° 0 mm 0 mps 712 mmHg 98%
    06:00 +21°C° 0 mm 0 mps 713 mmHg 94%
    07:00 +24°C° 0 mm 1 mps 713 mmHg 91%
    08:00 +24°C° 0 mm 1 mps 714 mmHg 87%
    09:00 +26°C° 0 mm 1 mps 714 mmHg 75%
    10:00 +29°C° 0 mm 1 mps 714 mmHg 64%
    11:00 +31°C° 0 mm 1 mps 714 mmHg 52%
    12:00 +32°C° 0 mm 2 mps 713 mmHg 48%
    13:00 +34°C° 0 mm 2 mps 712 mmHg 44%
    14:00 +36°C° 0 mm 2 mps 711 mmHg 39%
    15:00 +34°C° 0 mm 2 mps 711 mmHg 43%
    16:00 +32°C° 0 mm 2 mps 711 mmHg 46%
    17:00 +31°C° 0 mm 2 mps 710 mmHg 50%
    18:00 +29°C° 0 mm 2 mps 711 mmHg 59%
    19:00 +27°C° 0 mm 1 mps 711 mmHg 67%
    20:00 +23°C° 0 mm 0 mps 712 mmHg 76%
    21:00 +22°C° 0 mm 0 mps 712 mmHg 79%
    22:00 +21°C° 0 mm 0 mps 712 mmHg 82%
    23:00 +21°C° 0 mm 0 mps 713 mmHg 85%
    Show more